| time (UTC) | temp C | wind direction | speed KPH | gust KPH | rain 1hr cm | rain 24hr cm | rain mn cm | humidity % | barometer mb |
| 20260502200015 | 15 | 0.0 | 0.0 | 0.00 | 0.00 | 0.00 | 67 | 1017.4 | |
| 20260502195550 | 15 | 0.0 | 0.0 | 0.00 | 0.00 | 0.00 | 66 | 1017.4 | |
| 20260502195026 | 15 | 0.0 | 0.0 | 0.00 | 0.00 | 0.00 | 65 | 1017.4 | |
| 20260502194518 | 15 | 0.0 | 0.0 | 0.00 | 0.00 | 0.00 | 64 | 1017.4 | |
| 20260502194036 | 15 | 0.0 | 0.0 | 0.00 | 0.00 | 0.00 | 64 | 1017.4 | |
| 20260502193530 | 16 | 0.0 | 0.0 | 0.00 | 0.00 | 0.00 | 65 | 1017.4 | |
| 20260502193022 | 16 | 0.0 | 0.0 | 0.00 | 0.00 | 0.00 | 62 | 1017.0 | |
| 20260502192516 | 16 | 0.0 | 0.0 | 0.00 | 0.00 | 0.00 | 62 | 1016.4 | |
| 20260502192019 | 16 | 0.0 | 0.0 | 0.00 | 0.00 | 0.00 | 60 | 1016.3 | |
| 20260502191524 | 17 | 0.0 | 0.0 | 0.00 | 0.00 | 0.00 | 60 | 1016.3 | |
| 20260502191046 | 17 | 0.0 | 0.0 | 0.00 | 0.00 | 0.00 | 59 | 1016.3 | |
| 20260502190504 | 17 | 0.0 | 0.0 | 0.00 | 0.00 | 0.00 | 56 | 1016.3 | |
| 20260502185558 | 18 | 0.0 | 0.0 | 0.00 | 0.00 | 0.00 | 54 | 1016.4 | |
| 20260502185025 | 18 | 0.0 | 0.0 | 0.00 | 0.00 | 0.00 | 52 | 1016.3 | |
| 20260502184517 | 19 | 0.0 | 0.0 | 0.00 | 0.00 | 0.00 | 49 | 1016.3 | |
| 20260502184022 | 19 | 0.0 | 0.0 | 0.00 | 0.00 | 0.00 | 49 | 1016.3 | |
| 20260502183545 | 20 | 0.0 | 0.0 | 0.00 | 0.00 | 0.00 | 49 | 1016.3 | |
| 20260502183020 | 20 | 0.0 | 0.0 | 0.00 | 0.00 | 0.00 | 47 | 1016.3 | |
| 20260502182620 | 20 | 0.0 | 0.0 | 0.00 | 0.00 | 0.00 | 45 | 1016.3 | |
| 20260502182018 | 21 | 0.0 | 0.0 | 0.00 | 0.00 | 0.00 | 45 | 1016.3 | |
| 20260502181653 | 21 | 0.0 | 0.0 | 0.00 | 0.00 | 0.00 | 43 | 1016.2 | |
| 20260502181016 | 21 | 0.0 | 0.0 | 0.00 | 0.00 | 0.00 | 42 | 1016.2 | |
| 20260502180521 | 21 | 0.0 | 0.0 | 0.00 | 0.00 | 0.00 | 41 | 1016.2 | |
| 20260502164024 | 25 | 312 | 1.6 | 11.3 | 0.00 | 0.00 | 0.00 | 33 | 1016.7 |
| 20260502163635 | 25 | 354 | 1.6 | 9.7 | 0.00 | 0.00 | 0.00 | 35 | 1017.2 |
| 20260502163022 | 25 | 281 | 3.2 | 12.9 | 0.00 | 0.00 | 0.00 | 37 | 1017.2 |
| 20260502162515 | 25 | 294 | 3.2 | 8.0 | 0.00 | 0.00 | 0.00 | 37 | 1017.2 |
| 20260502162021 | 25 | 300 | 1.6 | 8.0 | 0.00 | 0.00 | 0.00 | 37 | 1017.2 |
| 20260502161714 | 25 | 312 | 3.2 | 11.3 | 0.00 | 0.00 | 0.00 | 37 | 1017.3 |
| 20260502161050 | 25 | 305 | 1.6 | 8.0 | 0.00 | 0.00 | 0.00 | 37 | 1017.3 |
| 20260502160909 | 25 | 283 | 3.2 | 9.7 | 0.00 | 0.00 | 0.00 | 35 | 1017.2 |
| 20260502152022 | 26 | 300 | 3.2 | 12.9 | 0.00 | 0.00 | 0.00 | 35 | 1017.2 |
| 20260502151515 | 26 | 280 | 4.8 | 12.9 | 0.00 | 0.00 | 0.00 | 34 | 1017.3 |
| 20260502151021 | 26 | 293 | 4.8 | 11.3 | 0.00 | 0.00 | 0.00 | 33 | 1017.5 |
| 20260502150526 | 26 | 280 | 3.2 | 8.0 | 0.00 | 0.00 | 0.00 | 34 | 1018.3 |
| 20260502130527 | 26 | 357 | 1.6 | 3.2 | 0.00 | 0.00 | 0.00 | 46 | 1019.4 |
| 20260502123551 | 26 | 286 | 3.2 | 12.9 | 0.00 | 0.00 | 0.00 | 46 | 1019.9 |
| 20260502123039 | 25 | 288 | 3.2 | 8.0 | 0.00 | 0.00 | 0.00 | 48 | 1020.4 |
| 20260502122531 | 25 | 288 | 3.2 | 9.7 | 0.00 | 0.00 | 0.00 | 47 | 1020.4 |
| 20260502122044 | 25 | 321 | 3.2 | 3.2 | 0.00 | 0.00 | 0.00 | 48 | 1020.4 |
| 20260502121516 | 25 | 2 | 3.2 | 8.0 | 0.00 | 0.00 | 0.00 | 49 | 1020.4 |
| 20260502121136 | 25 | 304 | 3.2 | 11.3 | 0.00 | 0.00 | 0.00 | 48 | 1020.4 |
| 20260502120526 | 25 | 329 | 0.0 | 3.2 | 0.00 | 0.00 | 0.00 | 50 | 1020.4 |
| 20260502115524 | 25 | 317 | 3.2 | 8.0 | 0.00 | 0.00 | 0.00 | 49 | 1020.4 |
| 20260502115017 | 25 | 315 | 1.6 | 8.0 | 0.00 | 0.00 | 0.00 | 49 | 1020.4 |
| 20260502114522 | 25 | 349 | 1.6 | 8.0 | 0.00 | 0.00 | 0.00 | 51 | 1020.4 |
| 20260502114027 | 25 | 325 | 3.2 | 9.7 | 0.00 | 0.00 | 0.00 | 50 | 1020.4 |
| 20260502113519 | 25 | 317 | 1.6 | 4.8 | 0.00 | 0.00 | 0.00 | 50 | 1020.4 |
| 20260502113024 | 25 | 298 | 3.2 | 9.7 | 0.00 | 0.00 | 0.00 | 50 | 1020.4 |
| 20260502112517 | 24 | 311 | 1.6 | 3.2 | 0.00 | 0.00 | 0.00 | 51 | 1020.4 |
| 20260502112022 | 24 | 303 | 3.2 | 8.0 | 0.00 | 0.00 | 0.00 | 51 | 1020.5 |
| 20260502111527 | 23 | 281 | 3.2 | 9.7 | 0.00 | 0.00 | 0.00 | 51 | 1021.4 |
| 20260502111050 | 23 | 319 | 3.2 | 11.3 | 0.00 | 0.00 | 0.00 | 52 | 1021.4 |
| 20260502110538 | 23 | 304 | 1.6 | 8.0 | 0.00 | 0.00 | 0.00 | 52 | 1021.4 |
| 20260502110031 | 23 | 319 | 3.2 | 8.0 | 0.00 | 0.00 | 0.00 | 53 | 1021.4 |
| 20260502105554 | 23 | 285 | 4.8 | 14.5 | 0.00 | 0.00 | 0.00 | 52 | 1021.4 |
| 20260502105016 | 23 | 336 | 3.2 | 11.3 | 0.00 | 0.00 | 0.00 | 53 | 1021.4 |
| 20260502104555 | 23 | 291 | 3.2 | 12.9 | 0.00 | 0.00 | 0.00 | 52 | 1021.4 |
| 20260502104018 | 23 | 330 | 3.2 | 9.7 | 0.00 | 0.00 | 0.00 | 51 | 1021.4 |
| 20260502103552 | 23 | 281 | 3.2 | 8.0 | 0.00 | 0.00 | 0.00 | 53 | 1021.4 |
| 20260502103015 | 23 | 276 | 3.2 | 11.3 | 0.00 | 0.00 | 0.00 | 53 | 1021.4 |
| 20260502102550 | 23 | 329 | 3.2 | 9.7 | 0.00 | 0.00 | 0.00 | 53 | 1021.4 |
| 20260502102025 | 23 | 296 | 3.2 | 11.3 | 0.00 | 0.00 | 0.00 | 53 | 1021.4 |
| 20260502101022 | 23 | 302 | 3.2 | 9.7 | 0.00 | 0.00 | 0.00 | 54 | 1021.4 |
| 20260502100515 | 23 | 314 | 1.6 | 9.7 | 0.00 | 0.00 | 0.00 | 54 | 1021.4 |
| 20260502091516 | 21 | 29 | 1.6 | 4.8 | 0.00 | 0.00 | 0.00 | 54 | 1022.4 |
| 20260502091051 | 21 | 5 | 1.6 | 4.8 | 0.00 | 0.00 | 0.00 | 55 | 1022.4 |
| 20260502090526 | 21 | 293 | 3.2 | 4.8 | 0.00 | 0.00 | 0.00 | 54 | 1022.4 |
| 20260502090331 | 21 | 313 | 1.6 | 3.2 | 0.00 | 0.00 | 0.00 | 55 | 1022.4 |
| 20260502071522 | 17 | 0.0 | 0.0 | 0.00 | 0.00 | 0.00 | 58 | 1023.4 | |
| 20260502071056 | 16 | 4 | 0.0 | 0.0 | 0.00 | 0.00 | 0.00 | 59 | 1023.4 |
| 20260502070517 | 16 | 0.0 | 0.0 | 0.00 | 0.00 | 0.00 | 62 | 1023.4 | |
| 20260502070022 | 15 | 0.0 | 0.0 | 0.00 | 0.00 | 0.00 | 63 | 1023.4 | |
| 20260502065657 | 15 | 0.0 | 0.0 | 0.00 | 0.00 | 0.00 | 64 | 1023.4 | |
| 20260502065017 | 14 | 0.0 | 0.0 | 0.00 | 0.00 | 0.00 | 67 | 1023.4 | |
| 20260502064521 | 13 | 0.0 | 0.0 | 0.00 | 0.00 | 0.00 | 70 | 1023.4 | |
| 20260502064233 | 13 | 0.0 | 0.0 | 0.00 | 0.00 | 0.00 | 72 | 1023.4 | |
| 20260502063517 | 13 | 0.0 | 0.0 | 0.00 | 0.00 | 0.00 | 72 | 1023.5 | |
| 20260502063021 | 12 | 0.0 | 0.0 | 0.00 | 0.00 | 0.00 | 72 | 1023.4 | |
| 20260502062524 | 12 | 0.0 | 0.0 | 0.00 | 0.00 | 0.00 | 74 | 1023.4 | |
| 20260502062045 | 12 | 0.0 | 0.0 | 0.00 | 0.00 | 0.00 | 74 | 1023.4 | |
| 20260502061549 | 12 | 0.0 | 0.0 | 0.00 | 0.00 | 0.00 | 75 | 1023.4 | |
| 20260502061023 | 11 | 0.0 | 0.0 | 0.00 | 0.00 | 0.00 | 79 | 1023.4 | |
| 20260502060515 | 10 | 357 | 0.0 | 1.6 | 0.00 | 0.00 | 0.00 | 82 | 1023.4 |
| 20260502060019 | 9 | 0.0 | 0.0 | 0.00 | 0.00 | 0.00 | 86 | 1023.4 | |
| 20260502055524 | 8 | 360 | 0.0 | 1.6 | 0.00 | 0.00 | 0.00 | 87 | 1023.3 |
| 20260502055016 | 7 | 0.0 | 0.0 | 0.00 | 0.00 | 0.00 | 95 | 1023.3 | |
| 20260502054520 | 6 | 360 | 0.0 | 1.6 | 0.00 | 0.00 | 0.00 | 95 | 1023.2 |
| 20260502054024 | 6 | 321 | 0.0 | 1.6 | 0.00 | 0.00 | 0.00 | 96 | 1022.2 |
| 20260502053516 | 6 | 322 | 0.0 | 1.6 | 0.00 | 0.00 | 0.00 | 97 | 1022.2 |
| 20260502053021 | 6 | 0.0 | 0.0 | 0.00 | 0.00 | 0.00 | 97 | 1022.2 | |
| 20260502052525 | 6 | 0.0 | 0.0 | 0.00 | 0.00 | 0.00 | 98 | 1023.2 | |
| 20260502052018 | 5 | 0.0 | 0.0 | 0.00 | 0.00 | 0.00 | 99 | 1023.2 | |
| 20260502051552 | 5 | 0.0 | 0.0 | 0.00 | 0.00 | 0.00 | 99 | 1023.2 | |
| 20260502051026 | 5 | 0.0 | 0.0 | 0.00 | 0.00 | 0.00 | 99 | 1023.1 | |
| 20260502050518 | 5 | 0.0 | 0.0 | 0.00 | 0.00 | 0.00 | 99 | 1023.2 | |
| 20260502050036 | 5 | 0.0 | 0.0 | 0.00 | 0.00 | 0.00 | 99 | 1023.2 | |
| 20260502045528 | 5 | 0.0 | 0.0 | 0.00 | 0.00 | 0.00 | 99 | 1023.2 | |
| 20260502045021 | 5 | 0.0 | 0.0 | 0.00 | 0.00 | 0.00 | 99 | 1023.2 | |
| 20260502044524 | 4 | 0.0 | 0.0 | 0.00 | 0.00 | 0.00 | 99 | 1023.1 | |
| 20260502044016 | 4 | 0.0 | 0.0 | 0.00 | 0.00 | 0.00 | 99 | 1022.3 | |
| 20260502043527 | 4 | 0.0 | 0.0 | 0.00 | 0.00 | 0.00 | 99 | 1022.2 | |
| 20260502043024 | 4 | 0.0 | 0.0 | 0.00 | 0.00 | 0.00 | 99 | 1022.2 | |
| 20260502042600 | 4 | 0.0 | 0.0 | 0.00 | 0.00 | 0.00 | 99 | 1022.2 | |
| 20260502042052 | 4 | 0.0 | 0.0 | 0.00 | 0.00 | 0.00 | 99 | 1022.2 | |
| 20260502041525 | 4 | 0.0 | 0.0 | 0.00 | 0.00 | 0.00 | 99 | 1022.2 | |
| 20260502041018 | 4 | 0.0 | 0.0 | 0.00 | 0.00 | 0.00 | 99 | 1022.2 | |
| 20260502040522 | 4 | 0.0 | 0.0 | 0.00 | 0.00 | 0.00 | 99 | 1022.2 | |
| 20260502040026 | 4 | 0.0 | 0.0 | 0.00 | 0.00 | 0.00 | 99 | 1022.2 | |
| 20260502035619 | 4 | 0.0 | 0.0 | 0.00 | 0.00 | 0.00 | 99 | 1023.2 | |
| 20260502035023 | 4 | 0.0 | 0.0 | 0.00 | 0.00 | 0.00 | 99 | 1023.2 | |
| 20260502034515 | 4 | 0.0 | 0.0 | 0.00 | 0.00 | 0.00 | 98 | 1023.2 | |
| 20260502034156 | 4 | 0.0 | 0.0 | 0.00 | 0.00 | 0.00 | 99 | 1023.2 | |
| 20260502033524 | 4 | 0.0 | 0.0 | 0.00 | 0.00 | 0.00 | 99 | 1023.2 | |
| 20260502033045 | 4 | 0.0 | 0.0 | 0.00 | 0.00 | 0.00 | 99 | 1023.2 | |
| 20260502032520 | 4 | 0.0 | 0.0 | 0.00 | 0.00 | 0.00 | 99 | 1022.9 | |
| 20260502032025 | 4 | 0.0 | 0.0 | 0.00 | 0.00 | 0.00 | 98 | 1022.2 | |
| 20260502031517 | 4 | 0.0 | 0.0 | 0.00 | 0.00 | 0.00 | 99 | 1022.2 | |
| 20260502031051 | 4 | 0.0 | 0.0 | 0.00 | 0.00 | 0.00 | 98 | 1022.5 | |
| 20260502030526 | 4 | 0.0 | 0.0 | 0.00 | 0.00 | 0.00 | 99 | 1023.2 | |
| 20260502030018 | 4 | 0.0 | 0.0 | 0.00 | 0.00 | 0.00 | 98 | 1023.2 | |
| 20260502025523 | 5 | 0.0 | 0.0 | 0.00 | 0.00 | 0.00 | 98 | 1023.0 | |
| 20260502025014 | 5 | 0.0 | 0.0 | 0.00 | 0.00 | 0.00 | 98 | 1022.2 | |
| 20260502024520 | 5 | 0.0 | 0.0 | 0.00 | 0.00 | 0.00 | 98 | 1022.2 | |
| 20260502024024 | 5 | 0.0 | 0.0 | 0.00 | 0.00 | 0.00 | 98 | 1022.4 | |
| 20260502023516 | 5 | 0.0 | 0.0 | 0.00 | 0.00 | 0.00 | 98 | 1023.2 | |
| 20260502023021 | 5 | 0.0 | 0.0 | 0.00 | 0.00 | 0.00 | 97 | 1023.2 | |
| 20260502022539 | 5 | 0.0 | 0.0 | 0.00 | 0.00 | 0.00 | 98 | 1023.2 | |
| 20260502022031 | 5 | 0.0 | 0.0 | 0.00 | 0.00 | 0.00 | 98 | 1022.2 | |
| 20260502021523 | 5 | 0.0 | 0.0 | 0.00 | 0.00 | 0.00 | 97 | 1022.2 | |
| 20260502021016 | 5 | 0.0 | 0.0 | 0.00 | 0.00 | 0.00 | 97 | 1022.2 | |
| 20260502020519 | 5 | 0.0 | 0.0 | 0.00 | 0.00 | 0.00 | 96 | 1023.2 | |
| 20260502020024 | 5 | 0.0 | 0.0 | 0.00 | 0.00 | 0.00 | 97 | 1023.2 | |
| 20260502015516 | 5 | 0.0 | 0.0 | 0.00 | 0.00 | 0.00 | 97 | 1023.2 | |
| 20260502015020 | 5 | 0.0 | 0.0 | 0.00 | 0.00 | 0.00 | 96 | 1023.2 | |
| 20260502014525 | 5 | 0.0 | 0.0 | 0.00 | 0.00 | 0.00 | 96 | 1023.2 | |
| 20260502014018 | 5 | 0.0 | 0.0 | 0.00 | 0.00 | 0.00 | 95 | 1023.2 | |
| 20260502013522 | 5 | 0.0 | 0.0 | 0.00 | 0.00 | 0.00 | 96 | 1023.2 | |
| 20260502013027 | 5 | 0.0 | 0.0 | 0.00 | 0.00 | 0.00 | 96 | 1023.2 | |
| 20260502012519 | 5 | 0.0 | 0.0 | 0.00 | 0.00 | 0.00 | 96 | 1023.2 | |
| 20260502012054 | 5 | 0.0 | 0.0 | 0.00 | 0.00 | 0.00 | 96 | 1022.4 | |
| 20260502011516 | 5 | 0.0 | 0.0 | 0.00 | 0.00 | 0.00 | 95 | 1022.2 | |
| 20260502011021 | 5 | 0.0 | 0.0 | 0.00 | 0.00 | 0.00 | 95 | 1022.2 | |
| 20260502010910 | 5 | 0.0 | 0.0 | 0.00 | 0.00 | 0.00 | 95 | 1023.0 | |
| 20260502005524 | 6 | 0.0 | 0.0 | 0.00 | 0.00 | 0.00 | 95 | 1023.2 | |
| 20260502005016 | 6 | 0.0 | 0.0 | 0.00 | 0.00 | 0.00 | 95 | 1023.2 | |
| 20260502004520 | 6 | 0.0 | 0.0 | 0.00 | 0.00 | 0.00 | 95 | 1023.2 | |
| 20260502004024 | 6 | 0.0 | 0.0 | 0.00 | 0.00 | 0.00 | 94 | 1023.2 | |
| 20260502003517 | 6 | 0.0 | 0.0 | 0.00 | 0.00 | 0.00 | 94 | 1023.2 | |
| 20260502003022 | 6 | 0.0 | 0.0 | 0.00 | 0.00 | 0.00 | 93 | 1023.2 | |
| 20260502002557 | 6 | 0.0 | 0.0 | 0.00 | 0.00 | 0.00 | 92 | 1023.2 | |
| 20260502002020 | 6 | 0.0 | 0.0 | 0.00 | 0.00 | 0.00 | 92 | 1023.2 | |
| 20260502001524 | 6 | 0.0 | 0.0 | 0.00 | 0.00 | 0.00 | 92 | 1023.2 | |
| 20260502001017 | 6 | 0.0 | 0.0 | 0.00 | 0.00 | 0.00 | 92 | 1023.2 | |
| 20260502000521 | 6 | 0.0 | 0.0 | 0.00 | 0.00 | 0.00 | 93 | 1023.2 | |
| 20260502000026 | 6 | 0.0 | 0.0 | 0.00 | 0.00 | 0.00 | 92 | 1023.2 | |
| 20260501235519 | 6 | 0.0 | 0.0 | 0.00 | 0.00 | 0.00 | 90 | 1023.2 | |
| 20260501235023 | 6 | 0.0 | 0.0 | 0.00 | 0.00 | 0.00 | 89 | 1023.2 | |
| 20260501234516 | 6 | 0.0 | 0.0 | 0.00 | 0.00 | 0.00 | 89 | 1023.2 | |
| 20260501234020 | 7 | 0.0 | 0.0 | 0.00 | 0.00 | 0.00 | 89 | 1023.2 | |
| 20260501233525 | 7 | 0.0 | 0.0 | 0.00 | 0.00 | 0.00 | 89 | 1023.2 | |
| 20260501233017 | 7 | 0.0 | 0.0 | 0.00 | 0.00 | 0.00 | 89 | 1023.2 | |
| 20260501232522 | 7 | 0.0 | 0.0 | 0.00 | 0.00 | 0.00 | 89 | 1023.2 | |
| 20260501232027 | 7 | 0.0 | 0.0 | 0.00 | 0.00 | 0.00 | 89 | 1023.2 | |
| 20260501231519 | 7 | 0.0 | 0.0 | 0.00 | 0.00 | 0.00 | 89 | 1023.2 | |
| 20260501231054 | 7 | 0.0 | 0.0 | 0.00 | 0.00 | 0.00 | 88 | 1023.2 | |
| 20260501230516 | 7 | 0.0 | 0.0 | 0.00 | 0.00 | 0.00 | 88 | 1023.2 | |
| 20260501230051 | 7 | 0.0 | 0.0 | 0.00 | 0.00 | 0.00 | 87 | 1023.2 | |
| 20260501225526 | 7 | 0.0 | 0.0 | 0.00 | 0.00 | 0.00 | 87 | 1023.2 | |
| 20260501225018 | 7 | 0.0 | 0.0 | 0.00 | 0.00 | 0.00 | 87 | 1023.2 | |
| 20260501224519 | 8 | 0.0 | 0.0 | 0.00 | 0.00 | 0.00 | 87 | 1023.2 | |
| 20260501224024 | 8 | 0.0 | 0.0 | 0.00 | 0.00 | 0.00 | 86 | 1023.2 | |
| 20260501223517 | 8 | 0.0 | 0.0 | 0.00 | 0.00 | 0.00 | 85 | 1023.2 | |
| 20260501223121 | 8 | 0.0 | 0.0 | 0.00 | 0.00 | 0.00 | 85 | 1023.2 | |
| 20260501222526 | 8 | 0.0 | 0.0 | 0.00 | 0.00 | 0.00 | 85 | 1023.2 | |
| 20260501222018 | 8 | 0.0 | 0.0 | 0.00 | 0.00 | 0.00 | 85 | 1023.2 | |
| 20260501221553 | 8 | 0.0 | 0.0 | 0.00 | 0.00 | 0.00 | 84 | 1023.2 | |
| 20260501221016 | 8 | 0.0 | 0.0 | 0.00 | 0.00 | 0.00 | 83 | 1023.2 | |
| 20260501220520 | 8 | 0.0 | 0.0 | 0.00 | 0.00 | 0.00 | 82 | 1023.2 | |
| 20260501220055 | 8 | 0.0 | 0.0 | 0.00 | 0.00 | 0.00 | 80 | 1023.1 | |
| 20260501215518 | 8 | 0.0 | 0.0 | 0.00 | 0.00 | 0.00 | 80 | 1023.1 | |
| 20260501215023 | 8 | 0.0 | 0.0 | 0.00 | 0.00 | 0.00 | 81 | 1023.2 | |
| 20260501214615 | 9 | 0.0 | 0.0 | 0.00 | 0.00 | 0.00 | 81 | 1023.2 | |
| 20260501214050 | 9 | 0.0 | 0.0 | 0.00 | 0.00 | 0.00 | 78 | 1023.1 | |
| 20260501213525 | 9 | 0.0 | 0.0 | 0.00 | 0.00 | 0.00 | 77 | 1023.1 | |
| 20260501213017 | 10 | 0.0 | 0.0 | 0.00 | 0.00 | 0.00 | 78 | 1023.2 | |
| 20260501212536 | 10 | 0.0 | 0.0 | 0.00 | 0.00 | 0.00 | 78 | 1023.2 | |
| 20260501212028 | 10 | 0.0 | 0.0 | 0.00 | 0.00 | 0.00 | 77 | 1023.2 | |
| 20260501211521 | 10 | 0.0 | 0.0 | 0.00 | 0.00 | 0.00 | 75 | 1023.2 | |
| 20260501211125 | 10 | 0.0 | 0.0 | 0.00 | 0.00 | 0.00 | 74 | 1023.2 | |
| 20260501210517 | 10 | 0.0 | 0.0 | 0.00 | 0.00 | 0.00 | 73 | 1023.2 | |
| 20260501210023 | 10 | 0.0 | 0.0 | 0.00 | 0.00 | 0.00 | 73 | 1023.2 | |
| 20260501205515 | 10 | 0.0 | 0.0 | 0.00 | 0.00 | 0.00 | 73 | 1023.2 | |
| 20260501205021 | 11 | 0.0 | 0.0 | 0.00 | 0.00 | 0.00 | 72 | 1023.2 | |
| 20260501204525 | 11 | 0.0 | 0.0 | 0.00 | 0.00 | 0.00 | 71 | 1023.2 | |
| 20260501204018 | 11 | 0.0 | 0.0 | 0.00 | 0.00 | 0.00 | 70 | 1023.1 | |
| 20260501203523 | 11 | 0.0 | 0.0 | 0.00 | 0.00 | 0.00 | 70 | 1023.2 | |
| 20260501203116 | 11 | 0.0 | 0.0 | 0.00 | 0.00 | 0.00 | 69 | 1023.1 | |
| 20260501202521 | 11 | 0.0 | 0.0 | 0.00 | 0.00 | 0.00 | 69 | 1023.2 | |
| 20260501202025 | 11 | 0.0 | 0.0 | 0.00 | 0.00 | 0.00 | 69 | 1023.2 | |
| 20260501201519 | 11 | 0.0 | 0.0 | 0.00 | 0.00 | 0.00 | 69 | 1023.2 | |
| 20260501201053 | 12 | 0.0 | 0.0 | 0.00 | 0.00 | 0.00 | 67 | 1023.2 | |
| 20260501200516 | 12 | 0.0 | 0.0 | 0.00 | 0.00 | 0.00 | 67 | 1023.2 |